Printer-friendly version

IAU Minor Planet Center

Minor Planet Center

MPEC 2002-J44 : 2001 KG76, 2001 KN76, 2001 KP76, 2001 KQ77

The following Minor Planet Electronic Circular may be linked-to from your own Web pages, but must not otherwise be redistributed electronically.


Read MPEC 2002-J43 Read MPEC 2002-J45


M.P.E.C. 2002-J44                                Issued 2002 May 13, 15:12 UT

     The Minor Planet Electronic Circulars contain information on unusual
         minor planets and routine data on comets.  They are published
   on behalf of Commission 20 of the International Astronomical Union by the
          Minor Planet Center, Smithsonian Astrophysical Observatory,
                          Cambridge, MA 02138, U.S.A.

             Prepared using the Tamkin Foundation Computer Network

                              MPC@CFA.HARVARD.EDU
          URL http://cfa-www.harvard.edu/iau/mpc.html  ISSN 1523-6714

                  2001 KG76, 2001 KN76, 2001 KP76, 2001 KQ77

                 Revision to MPEC 2001-M59, 2001-M60, 2002-B13

Observations:
     K01K76G  C2002 05 12.03950 16 12 54.85 -20 19 22.5                      950
     K01K76G  C2002 05 12.08513 16 12 54.63 -20 19 21.8                      950
     K01K76G  C2002 05 12.13062 16 12 54.41 -20 19 21.3                      950
     K01K76G  C2002 05 13.04812 16 12 50.15 -20 19 10.5                      950
     K01K76G  C2002 05 13.11749 16 12 49.83 -20 19 09.6                      950
     K01K76N  C2002 05 11.96967 14 05 14.59 -15 22 14.6                      950
     K01K76N  C2002 05 12.04612 14 05 14.20 -15 22 12.6                      950
     K01K76N  C2002 05 12.09174 14 05 14.01 -15 22 11.4                      950
     K01K76N  C2002 05 12.99888 14 05 09.85 -15 21 48.9                      950
     K01K76N  C2002 05 13.07988 14 05 09.48 -15 21 47.0                      950
     K01K76P  C2002 05 12.02836 16 03 10.23 -23 20 36.6                      950
     K01K76P  C2002 05 12.07402 16 03 10.01 -23 20 36.1                      950
     K01K76P  C2002 05 12.11956 16 03 09.78 -23 20 35.5                      950
     K01K76P  C2002 05 13.03693 16 03 05.34 -23 20 25.6                      950
     K01K76P  C2002 05 13.10636 16 03 04.99 -23 20 24.7                      950
     K01K77Q  C2002 05 12.03395 16 04 18.22 -22 21 29.3                      950
     K01K77Q  C2002 05 12.07964 16 04 17.98 -22 21 28.6                      950
     K01K77Q  C2002 05 12.12508 16 04 17.71 -22 21 27.7                      950
     K01K77Q  C2002 05 13.04247 16 04 12.58 -22 21 09.8                      950
     K01K77Q  C2002 05 13.11194 16 04 12.18 -22 21 08.5                      950

Observer details:
950 La Palma.  Observer T. Grav.  2.56-m Nordic Optical Telescope + CCD.

Orbital elements:
2001 KG76
Epoch 2002 May 6.0 TT = JDT 2452400.5                   MPC
M  47.56358              (2000.0)            P               Q
n   0.00266370     Peri.   63.19218     -0.93466120     -0.35452189
a  51.5401160      Node    96.03363     +0.31585217     -0.86266609
e   0.3453199      Incl.    1.54902     +0.16323557     -0.36072350
P 370              H    6.0           G   0.15           U   6
Residuals in seconds of arc
K015M  807  0.0   0.1+    K018J  807  0.1-  0.1-    K025C  950  0.1+  0.1+
K015M  807  0.0   0.2+    K018K  807  0.1+  0.1-    K025C  950  0.0   0.1+
K016A  304  0.1-  0.0     K018L  807  0.1-  0.3-    K025D  950  0.1-  0.0
K016A  304  0.2+  0.1+    K025C  950  0.1+  0.0     K025D  950  0.0   0.0

2001 KN76
Eccentricity assumed
Epoch 2002 May 6.0 TT = JDT 2452400.5                   MPC
M 345.50518              (2000.0)            P               Q
n   0.00340764     Peri.  264.79731     -0.61916041     +0.78485938
a  43.7354125      Node   326.90548     -0.70093043     -0.56686055
e   0.0745684      Incl.    2.64755     -0.35402954     -0.25032951
P 289              H    6.8           G   0.15
Residuals in seconds of arc
K015M  807  0.1-  0.4-    K016A  304  0.8+  1.0+    K025C  950  0.2+  0.0
K015N  807  0.4-  0.8-    K025B  950  0.3+  0.1-    K025C  950  0.2-  0.1+
K016A  304  0.3-  0.3+    K025C  950  0.1-  0.0     K025D  950  0.1-  0.0

2001 KP76
Epoch 2002 May 6.0 TT = JDT 2452400.5                   MPC
M 276.65362              (2000.0)            P               Q
n   0.00345068     Peri.  305.20865     +0.97389143     +0.21035096
a  43.3710378      Node    42.83021     -0.14498187     +0.86569166
e   0.1880752      Incl.    7.21398     -0.17468756     +0.45423610
P 286              H    6.3           G   0.15           U   7
Residuals in seconds of arc
K015N  807  0.0   0.0     K016D  304  0.0   0.1+    K025C  950  0.1-  0.1+
K015N  807  0.0   0.1-    K025C  950  0.1-  0.0     K025D  950  0.1+  0.1-
K016D  304  0.0   0.1+    K025C  950  0.0   0.0     K025D  950  0.0   0.0

2001 KQ77
Epoch 2002 May 6.0 TT = JDT 2452400.5                   MPC
M 304.87829              (2000.0)            P               Q
n   0.00400823     Peri.   64.57873     +0.65141393     +0.71599410
a  39.2495460      Node   248.46707     -0.75616943     +0.58554128
e   0.1454565      Incl.   15.65574     -0.06219063     +0.38012348
P 246              H    6.0           G   0.15           U   5
Residuals in seconds of arc
K015N  807  0.2+  0.1+    K018J  807  0.2+  0.3-    K025C  950  0.1+  0.1-
K015N  807  0.2+  0.1+    K018K  807  0.1-  0.0     K025C  950  0.0   0.1-
K016C  304  0.2-  0.4+    K018L  807  0.0   0.4-    K025D  950  0.0   0.1+
K016C  304  0.2-  0.0     K025C  950  0.1-  0.1+    K025D  950  0.0   0.1+

Ephemerides:
2001 KG76                a,e,i = 51.54, 0.35, 2                  q = 33.742
Date    TT    R. A. (2000) Decl.     Delta      r     Elong.  Phase     V
2002 05 06    16 13.37   -20 20.5   43.231   44.182   160.1     0.4    22.5
2002 05 16    16 12.61   -20 18.6   43.194   44.190   170.0     0.2    22.5
2002 05 26    16 11.81   -20 16.6   43.186   44.199   179.2     0.0    22.4
2002 06 05    16 11.02   -20 14.6   43.207   44.208   170.4     0.2    22.5
2002 06 15    16 10.25   -20 12.7   43.257   44.217   160.6     0.4    22.5
2002 06 25    16 09.54   -20 10.9   43.334   44.225   150.9     0.6    22.5
2002 07 05    16 08.90   -20 09.4   43.437   44.234   141.3     0.8    22.6
2002 07 15    16 08.37   -20 08.2   43.562   44.243   131.6     1.0    22.6
2002 07 25    16 07.96   -20 07.3   43.706   44.252   122.0     1.1    22.6
2002 08 04    16 07.69   -20 06.7   43.865   44.261   112.3     1.2    22.6
2002 08 14    16 07.56   -20 06.6   44.036   44.269   102.7     1.3    22.6
2002 08 24    16 07.58   -20 06.9   44.212   44.278    93.1     1.3    22.6
2002 09 03    16 07.76   -20 07.6   44.390   44.287    83.5     1.3    22.6
2002 09 13    16 08.09   -20 08.7   44.565   44.296    73.9     1.3    22.7
2002 09 23    16 08.57   -20 10.3   44.732   44.305    64.2     1.2    22.7
2002 10 03    16 09.19   -20 12.1   44.886   44.313    54.6     1.1    22.7
2002 10 13    16 09.94   -20 14.2   45.024   44.322    44.9     0.9    22.6
2002 10 23    16 10.79   -20 16.6   45.141   44.331    35.1     0.7    22.6

2001 KN76                a,e,i = 43.74, 0.07, 3                  q = 40.474
Date    TT    R. A. (2000) Decl.     Delta      r     Elong.  Phase     V
2002 05 06    14 05.71   -15 24.7   39.604   40.595   169.0     0.3    22.9
2002 05 16    14 04.94   -15 20.6   39.647   40.594   159.3     0.5    22.9
2002 05 26    14 04.23   -15 16.6   39.718   40.594   149.5     0.7    23.0
2002 06 05    14 03.62   -15 13.1   39.813   40.593   139.8     0.9    23.0
2002 06 15    14 03.11   -15 09.9   39.931   40.593   130.1     1.1    23.0
2002 06 25    14 02.73   -15 07.4   40.067   40.592   120.5     1.2    23.0
2002 07 05    14 02.48   -15 05.6   40.218   40.592   110.9     1.3    23.0
2002 07 15    14 02.39   -15 04.5   40.379   40.591   101.4     1.4    23.1
2002 07 25    14 02.46   -15 04.3   40.545   40.591    91.8     1.4    23.1
2002 08 04    14 02.68   -15 04.8   40.713   40.590    82.3     1.4    23.1
2002 08 14    14 03.05   -15 06.2   40.877   40.589    72.9     1.4    23.1
2002 08 24    14 03.57   -15 08.4   41.032   40.589    63.4     1.3    23.1
2002 09 03    14 04.22   -15 11.3   41.175   40.588    53.9     1.2    23.1
2002 09 13    14 05.00   -15 15.0   41.301   40.588    44.4     1.0    23.1
2002 09 23    14 05.88   -15 19.2   41.406   40.587    34.9     0.8    23.1

2001 KP76                a,e,i = 43.37, 0.19, 7                  q = 35.214
Date    TT    R. A. (2000) Decl.     Delta      r     Elong.  Phase     V
2002 05 06    16 03.65   -23 21.7   42.995   43.954   161.6     0.4    22.8
2002 05 16    16 02.85   -23 19.9   42.949   43.949   171.3     0.2    22.7
2002 05 26    16 02.02   -23 17.9   42.932   43.944   177.0     0.1    22.7
2002 06 05    16 01.20   -23 15.8   42.945   43.939   168.5     0.3    22.7
2002 06 15    16 00.42   -23 13.7   42.985   43.934   158.8     0.5    22.8
2002 06 25    15 59.69   -23 11.6   43.053   43.929   149.2     0.7    22.8
2002 07 05    15 59.06   -23 09.7   43.146   43.925   139.5     0.9    22.8
2002 07 15    15 58.53   -23 08.1   43.261   43.920   129.9     1.0    22.8
2002 07 25    15 58.13   -23 06.7   43.394   43.915   120.3     1.1    22.9
2002 08 04    15 57.87   -23 05.6   43.542   43.910   110.7     1.2    22.9
2002 08 14    15 57.77   -23 05.0   43.700   43.905   101.0     1.3    22.9
2002 08 24    15 57.82   -23 04.8   43.863   43.900    91.5     1.3    22.9
2002 09 03    15 58.03   -23 05.0   44.027   43.896    81.8     1.3    22.9
2002 09 13    15 58.40   -23 05.7   44.187   43.891    72.2     1.3    22.9
2002 09 23    15 58.92   -23 06.9   44.339   43.886    62.6     1.2    22.9
2002 10 03    15 59.58   -23 08.5   44.477   43.881    53.0     1.0    22.9
2002 10 13    16 00.36   -23 10.4   44.597   43.876    43.3     0.9    22.9
2002 10 23    16 01.25   -23 12.8   44.697   43.871    33.6     0.7    22.9

2001 KQ77                a,e,i = 39.25, 0.15, 16                 q = 33.540
Date    TT    R. A. (2000) Decl.     Delta      r     Elong.  Phase     V
2002 05 06    16 04.86   -22 23.4   35.656   36.615   161.7     0.5    21.7
2002 05 16    16 03.93   -22 20.2   35.611   36.611   171.5     0.2    21.6
2002 05 26    16 02.98   -22 16.8   35.595   36.607   177.9     0.1    21.6
2002 06 05    16 02.03   -22 13.4   35.608   36.603   168.6     0.3    21.6
2002 06 15    16 01.12   -22 10.0   35.650   36.600   158.9     0.6    21.7
2002 06 25    16 00.29   -22 06.7   35.719   36.596   149.2     0.8    21.7
2002 07 05    15 59.56   -22 03.6   35.813   36.592   139.5     1.0    21.7
2002 07 15    15 58.97   -22 00.9   35.929   36.588   129.8     1.2    21.8
2002 07 25    15 58.52   -21 58.5   36.064   36.584   120.1     1.4    21.8
2002 08 04    15 58.25   -21 56.6   36.213   36.581   110.5     1.5    21.8
2002 08 14    15 58.15   -21 55.2   36.372   36.577   100.9     1.6    21.8
2002 08 24    15 58.25   -21 54.3   36.536   36.573    91.3     1.6    21.8
2002 09 03    15 58.53   -21 54.0   36.701   36.569    81.7     1.6    21.8
2002 09 13    15 59.00   -21 54.2   36.862   36.566    72.1     1.5    21.8
2002 09 23    15 59.65   -21 55.0   37.014   36.562    62.5     1.4    21.8
2002 10 03    16 00.46   -21 56.2   37.153   36.558    52.9     1.3    21.8
2002 10 13    16 01.42   -21 57.9   37.275   36.554    43.2     1.1    21.8
2002 10 23    16 02.51   -21 59.9   37.375   36.550    33.6     0.9    21.8

Brian G. Marsden             (C) Copyright 2002 MPC           M.P.E.C. 2002-J44

Read MPEC 2002-J43 Read MPEC 2002-J45


Our Web policy. Index to the CBAT/MPC/ICQ pages.


Valid HTML 4.01!